Observations
| Time | Sensor | AQI | SAQ | Temp °C | Hum % | Pres Pa | CO μg/m³ | H₂S μg/m³ | NO μg/m³ | NO₂ μg/m³ | O₃ μg/m³ | SO₂ μg/m³ | CO₂e PPM | VOC PPM | PM1 μg/m³ | PM2.5 μg/m³ | PM4 μg/m³ | PM10 μg/m³ | TPS µm |
|---|---|---|---|---|---|---|---|---|---|---|---|---|---|---|---|---|---|---|---|
| Wednesday 12 August 2026 | |||||||||||||||||||
| 07:37 | Trim Patrick St | 2 | 21.3 | 66 | 96,170 | 0.06 | 0 | 1.4 | 8.47 | 45.92 | 0 | 8.86 | 12.66 | 13.92 | |||||
| 07:37 | Trim Market St | 2 | 21.6 | 64 | 57,312 | 0.06 | 0 | 1.17 | 11.19 | 62.37 | 0 | 4.28 | 5.82 | 9.52 | |||||
| 07:36 | Trim Patrick St | 2 | 21.3 | 67 | 96,869 | 0.01 | 0 | 1.3 | 12.08 | 41.99 | 0 | 8 | 13.38 | 14.72 | |||||
| 07:36 | Trim Market St | 2 | 21.6 | 64 | 57,305 | 0.06 | 0 | 1.13 | 10.82 | 60.28 | 0 | 4.28 | 6.31 | 12.17 | |||||
| 07:35 | Trim Patrick St | 2 | 21.2 | 67 | 97,179 | 0.02 | 0 | 1.28 | 7.13 | 47.43 | 0 | 8.86 | 14.1 | 15.51 | |||||
| 07:35 | Trim Market St | 2 | 21.6 | 64 | 57,292 | 0.05 | 0 | 1.13 | 11.47 | 63.54 | 0 | 3.56 | 5.82 | 8.86 | |||||
| 07:34 | Trim Patrick St | 2 | 21.2 | 67 | 97,626 | 0.02 | 0 | 1.27 | 13.47 | 46.38 | 0 | 7.14 | 12.64 | 13.91 | |||||
| 07:34 | Trim Market St | 2 | 21.6 | 64 | 57,288 | 0.07 | 0 | 1.12 | 11.51 | 65.44 | 0 | 4.28 | 5.32 | 7.53 | |||||
| 07:33 | Trim Patrick St | 2 | 21.2 | 66 | 97,532 | 0.02 | 0 | 1.64 | 9.75 | 45.24 | 0 | 7.14 | 12.73 | 14 | |||||
| 07:33 | Trim Market St | 2 | 21.5 | 64 | 57,285 | 0.07 | 0 | 1.14 | 11.45 | 56.25 | 0 | 4.28 | 6.8 | 9.52 | |||||
| 07:32 | Trim Patrick St | 2 | 21.2 | 66 | 98,239 | 0.04 | 0 | 1.89 | 15.64 | 44.13 | 0 | 6.29 | 11.98 | 13.18 | |||||
| 07:32 | Trim Market St | 2 | 21.5 | 64 | 57,284 | 0.09 | 0 | 1.14 | 11.19 | 56.98 | 0 | 4.99 | 6.8 | 9.52 | |||||
| 07:31 | Trim Patrick St | 2 | 21.2 | 67 | 99,001 | 0.02 | 0 | 1.49 | 7.87 | 42.83 | 0 | 7.14 | 12.65 | 13.91 | |||||
| 07:31 | Trim Market St | 2 | 21.5 | 64 | 57,272 | 0.07 | 0 | 1.16 | 11.44 | 74.3 | 0 | 4.28 | 6.8 | 9.52 | |||||
| 07:30 | Trim Patrick St | 2 | 21.2 | 66 | 100,154 | 0.03 | 0 | 1.41 | 8.13 | 47.27 | 0 | 8.86 | 12.66 | 13.92 | |||||
| 07:29 | Trim Patrick St | 2 | 21.1 | 67 | 101,536 | 0.03 | 0 | 1.37 | 7.7 | 45.91 | 0 | 7.14 | 11.9 | 13.09 | |||||
| 07:29 | Trim Market St | 2 | 21.5 | 64 | 57,257 | 0.07 | 0 | 1.15 | 11.68 | 52.55 | 0 | 4.99 | 6.8 | 10.84 | |||||
| 07:28 | Trim Patrick St | 2 | 21.1 | 67 | 102,792 | 0.03 | 0 | 1.17 | 7.36 | 48.4 | 0 | 8.86 | 14.07 | 15.48 | |||||
| 07:27 | Trim Patrick St | 2 | 21.1 | 67 | 103,979 | 0.03 | 0 | 1.16 | 6.92 | 48.22 | 0 | 7.14 | 11.16 | 12.28 | |||||
| 07:26 | Trim Patrick St | 2 | 21.1 | 66 | 104,772 | 0.03 | 0 | 1.16 | 9.09 | 42.22 | 0 | 7.14 | 11.93 | 13.12 | |||||